Total_Precipitation_Accumulation
0.38 0.32 0.41 0.48 0.43 0.47 0.67 0.66 0.59 0.37 0.34 0.36 0.36 0.41 0.43 0.47 0.48 0.48 0.49 0.56 0.71 0.82 0.82 0.83 0.86 0.88 0.85 0.88 0.99 1.05 1.01 1.10 1.19 1.32 1.40 1.37 1.32 1.33 1.44 1.56 1.61 1.65 1.66 1.60
0.41 0.24 0.31 0.38 0.31 0.31 0.36 0.32 0.31 0.24 0.29 0.32 0.33 0.33 0.35 0.36 0.42 0.46 0.47 0.52 0.59 0.67 0.75 0.85 0.94 0.96 0.94 0.91 0.95 1.03 1.01 1.06 1.10 1.25 1.38 1.38 1.30 1.34 1.47 1.57 1.56 1.58 1.64 1.62
0.73 0.30 0.55 0.62 0.39 0.33 0.35 0.33 0.31 0.36 0.37 0.31 0.29 0.32 0.39 0.39 0.42 0.46 0.47 0.48 0.49 0.59 0.73 0.83 0.92 0.95 0.97 0.94 0.97 1.02 1.03 1.05 1.11 1.24 1.31 1.36 1.34 1.36 1.47 1.58 1.58 1.55 1.57 1.59
1.20 0.81 1.10 0.58 0.29 0.28 0.33 0.35 0.33 0.33 0.29 0.30 0.34 0.36 0.43 0.43 0.47 0.48 0.50 0.50 0.50 0.59 0.71 0.75 0.83 0.87 0.92 0.88 1.00 1.06 1.06 1.05 1.10 1.18 1.22 1.32 1.35 1.38 1.49 1.56 1.52 1.51 1.53 1.52
1.63 1.14 0.59 0.32 0.28 0.38 0.47 0.47 0.36 0.28 0.21 0.21 0.25 0.32 0.41 0.38 0.43 0.49 0.50 0.54 0.56 0.60 0.68 0.69 0.76 0.82 0.87 0.83 0.92 1.01 1.05 1.01 1.03 1.11 1.16 1.25 1.31 1.38 1.47 1.56 1.52 1.46 1.43 1.49
1.80 1.30 0.63 0.40 0.26 0.30 0.43 0.61 0.35 0.27 0.26 0.24 0.29 0.46 0.46 0.40 0.40 0.41 0.42 0.47 0.55 0.58 0.62 0.64 0.70 0.74 0.78 0.83 0.86 0.94 1.00 0.92 0.97 1.04 1.07 1.17 1.23 1.31 1.39 1.42 1.44 1.44 1.39 1.41
1.48 1.18 0.48 0.31 0.26 0.32 0.68 0.76 0.40 0.34 0.35 0.35 0.45 0.53 0.46 0.43 0.44 0.45 0.45 0.46 0.50 0.52 0.58 0.64 0.68 0.69 0.72 0.80 0.87 0.90 0.98 0.91 0.95 0.98 1.03 1.11 1.18 1.20 1.28 1.35 1.37 1.43 1.42 1.39
1.13 1.27 0.64 0.33 0.39 0.68 0.80 0.46 0.37 0.35 0.35 0.38 0.39 0.36 0.35 0.39 0.44 0.51 0.50 0.46 0.48 0.51 0.56 0.60 0.63 0.67 0.69 0.74 0.81 0.88 0.93 0.92 0.98 1.02 1.03 1.07 1.13 1.13 1.17 1.28 1.35 1.38 1.42 1.45
0.92 0.77 0.50 0.43 0.53 0.58 0.49 0.42 0.34 0.34 0.34 0.37 0.36 0.35 0.38 0.41 0.45 0.52 0.53 0.50 0.50 0.54 0.55 0.57 0.62 0.67 0.73 0.76 0.78 0.87 0.91 0.91 0.97 1.06 1.08 1.09 1.09 1.09 1.13 1.20 1.29 1.34 1.36 1.36
0.61 0.44 0.33 0.33 0.34 0.34 0.32 0.33 0.31 0.31 0.34 0.37 0.37 0.35 0.40 0.42 0.46 0.50 0.52 0.54 0.55 0.58 0.58 0.60 0.63 0.69 0.77 0.80 0.78 0.84 0.88 0.89 0.94 1.01 1.06 1.10 1.06 1.01 1.01 1.11 1.24 1.27 1.29 1.25
0.48 0.32 0.30 0.28 0.27 0.27 0.25 0.22 0.23 0.24 0.26 0.30 0.33 0.36 0.41 0.44 0.48 0.54 0.54 0.57 0.59 0.61 0.64 0.67 0.66 0.72 0.78 0.81 0.80 0.83 0.82 0.81 0.87 0.90 0.99 1.09 1.08 1.02 1.01 1.01 1.21 1.36 1.32 1.27
0.46 0.33 0.39 0.32 0.25 0.25 0.25 0.23 0.24 0.25 0.24 0.23 0.28 0.35 0.38 0.41 0.45 0.54 0.59 0.59 0.61 0.63 0.66 0.72 0.71 0.74 0.78 0.80 0.78 0.78 0.79 0.77 0.80 0.84 0.89 0.98 1.02 1.06 1.18 1.16 1.19 1.21 1.23 1.30
0.35 0.27 0.27 0.25 0.23 0.23 0.25 0.24 0.23 0.25 0.27 0.25 0.25 0.31 0.36 0.40 0.43 0.49 0.55 0.60 0.64 0.68 0.70 0.74 0.74 0.77 0.80 0.80 0.79 0.78 0.78 0.78 0.79 0.82 0.85 0.91 0.92 0.93 1.07 1.22 1.28 1.24 1.18 1.20
0.22 0.22 0.22 0.19 0.20 0.20 0.22 0.21 0.20 0.21 0.23 0.25 0.25 0.27 0.29 0.33 0.36 0.44 0.56 0.62 0.64 0.66 0.69 0.72 0.73 0.79 0.85 0.86 0.86 0.82 0.80 0.85 0.86 0.83 0.85 0.90 0.89 0.85 0.89 0.98 1.09 1.18 1.21 1.20
0.16 0.19 0.21 0.18 0.18 0.20 0.23 0.22 0.20 0.22 0.24 0.24 0.23 0.25 0.27 0.31 0.36 0.47 0.56 0.60 0.61 0.63 0.68 0.71 0.73 0.80 0.84 0.90 0.92 0.84 0.84 0.87 0.88 0.86 0.87 0.91 0.90 0.87 0.88 0.89 0.92 0.99 1.07 1.18
0.18 0.17 0.17 0.17 0.19 0.22 0.25 0.26 0.25 0.26 0.28 0.28 0.27 0.28 0.30 0.31 0.34 0.42 0.52 0.58 0.62 0.66 0.71 0.72 0.77 0.85 0.89 0.94 0.95 0.90 0.90 0.99 1.00 0.93 0.91 0.95 0.96 0.97 0.95 0.93 0.95 0.95 0.98 1.08
0.24 0.21 0.20 0.20 0.21 0.23 0.27 0.31 0.31 0.29 0.30 0.30 0.30 0.29 0.28 0.29 0.30 0.35 0.45 0.55 0.62 0.66 0.70 0.75 0.80 0.85 0.90 0.96 0.99 0.96 0.95 1.01 1.08 0.99 0.94 0.99 1.05 1.05 1.01 1.02 1.03 0.99 0.96 1.05
0.24 0.24 0.23 0.24 0.24 0.25 0.27 0.30 0.31 0.30 0.30 0.30 0.29 0.27 0.28 0.31 0.33 0.37 0.44 0.51 0.54 0.56 0.63 0.73 0.82 0.86 0.89 0.96 1.01 0.99 0.97 1.00 1.03 1.01 0.99 1.05 1.11 1.10 1.08 1.08 1.07 1.05 1.01 1.06
0.18 0.19 0.20 0.20 0.20 0.22 0.25 0.29 0.29 0.28 0.28 0.28 0.28 0.30 0.32 0.33 0.35 0.39 0.42 0.44 0.48 0.56 0.64 0.73 0.85 0.82 0.83 0.93 1.04 1.01 1.00 1.03 1.05 1.05 1.02 1.12 1.16 1.12 1.11 1.10 1.09 1.06 1.07 1.08
0.17 0.18 0.19 0.20 0.19 0.21 0.24 0.25 0.27 0.26 0.27 0.28 0.30 0.32 0.34 0.35 0.36 0.39 0.41 0.44 0.52 0.65 0.68 0.77 0.80 0.82 0.84 0.87 0.96 0.99 1.05 1.06 1.07 1.08 1.06 1.07 1.11 1.15 1.13 1.12 1.11 1.11 1.13 1.14
0.20 0.20 0.21 0.22 0.22 0.22 0.24 0.25 0.28 0.28 0.27 0.30 0.33 0.36 0.37 0.36 0.37 0.40 0.44 0.47 0.50 0.60 0.68 0.78 0.82 0.87 0.90 0.93 1.00 1.03 1.08 1.08 1.10 1.12 1.12 1.11 1.12 1.14 1.13 1.13 1.14 1.12 1.13 1.15
0.27 0.27 0.27 0.27 0.27 0.26 0.27 0.27 0.29 0.32 0.32 0.35 0.37 0.38 0.37 0.36 0.38 0.41 0.45 0.51 0.56 0.68 0.74 0.78 0.86 1.00 1.08 1.08 0.99 1.02 1.07 1.07 1.09 1.13 1.14 1.12 1.13 1.15 1.14 1.14 1.17 1.14 1.10 1.12
0.32 0.33 0.34 0.33 0.31 0.30 0.29 0.29 0.32 0.36 0.39 0.40 0.41 0.42 0.42 0.41 0.42 0.46 0.51 0.52 0.58 0.74 0.81 0.87 1.02 1.15 1.20 1.07 0.99 1.01 1.06 1.06 1.08 1.12 1.15 1.14 1.13 1.15 1.15 1.14 1.15 1.14 1.13 1.10
0.35 0.37 0.39 0.39 0.36 0.34 0.34 0.36 0.36 0.41 0.45 0.46 0.47 0.48 0.50 0.48 0.47 0.48 0.55 0.62 0.70 0.82 0.88 0.98 1.11 1.18 1.20 1.08 1.01 1.04 1.07 1.07 1.07 1.11 1.14 1.15 1.17 1.17 1.16 1.16 1.17 1.12 1.07 1.06
0.39 0.40 0.39 0.40 0.41 0.42 0.42 0.43 0.43 0.46 0.48 0.49 0.49 0.51 0.53 0.55 0.57 0.58 0.59 0.65 0.75 0.83 0.88 0.96 1.06 1.13 1.12 1.09 1.04 1.06 1.09 1.11 1.14 1.19 1.19 1.19 1.19 1.18 1.17 1.14 1.12 1.11 1.08 1.04
0.43 0.43 0.44 0.45 0.48 0.50 0.49 0.49 0.52 0.52 0.52 0.52 0.53 0.53 0.56 0.59 0.61 0.63 0.66 0.69 0.75 0.83 0.86 0.90 0.97 1.04 1.07 1.07 1.06 1.07 1.09 1.15 1.18 1.17 1.14 1.15 1.14 1.15 1.14 1.11 1.07 1.05 1.05 1.03
0.48 0.48 0.48 0.49 0.51 0.54 0.56 0.57 0.58 0.61 0.60 0.60 0.61 0.60 0.60 0.63 0.66 0.68 0.70 0.74 0.78 0.83 0.86 0.90 0.95 1.02 1.07 1.09 1.12 1.13 1.13 1.12 1.13 1.14 1.15 1.14 1.12 1.12 1.11 1.09 1.07 1.05 1.03 1.01